Location: Graniczna
(50.9889°N, 16.3452°E)
Time: 23:24:33
(UTC+00:00)

Daily predictions for brighter satellites

Satellite Brightness Start Highest point End
(mag) Time Altitude Azimuth Time Altitude Azimuth Time Altitude Azimuth
NOSS 3-1 (A) 3.7 19:26:09 10° S 19:31:20 43° ESE 19:37:20 10° NE
Cosmos 1190 Rocket 4.1 19:27:29 10° NNW 19:32:44 80° ENE 19:37:57 10° SSE
STARLINK-1117 4.0 19:30:18 10° WNW 19:34:27 67° N 19:38:35 10° E
STARLINK-1111 3.9 19:32:24 10° W 19:36:33 71° N 19:40:41 10° ENE
STARLINK-1077 3.7 19:33:04 10° WNW 19:37:13 74° SSW 19:41:20 10° ESE
Meteor 1-4 Rocket 3.2 19:34:18 10° SSE 19:37:26 34° E 19:40:37 10° NNE
Cosmos 1624 Rocket 4.4 19:32:41 10° S 19:37:41 44° ESE 19:42:45 10° NE
SPOT 5 3.9 19:33:55 10° SE 19:38:37 38° ENE 19:43:29 10° N
STARLINK-1078 4.0 19:35:17 10° WNW 19:39:25 68° N 19:43:33 10° E
Cosmos 1782 Rocket 3.6 19:35:39 10° N 19:40:10 88° E 19:44:39 10° S
Aureole 1 Rocket 3.1 19:36:29 10° NNW 19:40:20 89° ENE 19:45:20 10° SSE
STARLINK-1073 4.0 19:37:23 10° W 19:41:32 70° N 19:45:41 10° ENE
STARLINK-1075 3.7 19:38:03 10° WNW 19:42:12 71° SSW 19:46:19 10° ESE
NOSS 2-3 (C) 4.2 19:38:18 10° S 19:42:19 38° ESE 19:47:00 10° NE
MetOp-B 4.2 19:37:56 10° SSE 19:43:18 88° WSW 19:48:42 10° NNW
STARLINK-1108 3.9 19:40:16 10° WNW 19:44:25 69° N 19:48:33 10° E
Cosmos 1140 Rocket 3.5 19:39:45 10° NNW 19:44:59 89° ENE 19:50:12 10° SSE
STARLINK-1121 4.0 19:42:22 10° W 19:46:31 69° N 19:50:39 10° ENE
STARLINK-1093 3.7 19:43:02 10° WNW 19:47:10 67° SSW 19:51:17 10° ESE
Okean 2 Rocket 3.6 19:44:10 10° N 19:48:30 47° ENE 19:52:45 10° SSE
Intercosmos 24 4.4 19:45:23 10° N 19:49:10 40° ENE 19:52:29 10° SE
STARLINK-1071 3.9 19:45:15 10° WNW 19:49:24 71° N 19:53:33 10° E
Cosmos 1703 Rocket 3.7 19:45:11 10° SSW 19:49:31 81° W 19:53:53 10° N
STARLINK-1245 4.4 19:47:44 10° SSW 19:51:20 29° SE 19:54:55 10° E
Cosmos 1371 Rocket 4.0 19:46:19 10° S 19:51:29 62° ESE 19:56:39 10° NNE
STARLINK-1106 4.0 19:47:21 10° W 19:51:30 68° N 19:55:38 10° ENE
STARLINK-1074 3.7 19:48:01 10° WNW 19:52:09 64° SSW 19:56:12 10° SE
Cosmos 1634 Rocket 4.1 19:46:02 10° N 19:52:23 81° E 19:58:43 10° SSE
Cosmos 1743 4.0 19:49:21 10° NNW 19:52:57 40° W 19:56:31 10° SSW
STARLINK-1110 3.9 19:49:28 10° WNW 19:53:37 72° N 19:57:46 10° E
Cosmos 1544 3.2 19:51:51 10° NNW 19:55:32 76° W 19:59:08 10° S
STARLINK-1233 4.4 19:52:36 10° SSW 19:56:15 31° SE 19:59:56 10° E
STARLINK-1112 4.0 19:52:22 10° W 19:56:31 67° N 20:00:38 10° ENE
Cosmos 2082 Rocket 2.8 19:51:23 10° NNW 19:56:58 49° NE 20:02:27 10° SE
SAR-Lupe-2 3.6 19:53:54 10° NNE 19:57:29 58° ESE 20:01:02 10° S
Landsat 7 3.8 19:52:54 10° SSE 19:57:40 87° ENE 20:02:28 10° NNW
STARLINK-1124 3.8 19:55:14 10° WNW 19:59:23 74° NNE 20:03:32 10° E
Cosmos 1954 Rocket 4.1 19:54:40 10° NNW 19:59:57 81° ENE 20:05:03 11° SSE
ERBS 4.1 20:00:02 12° SE 20:00:48 13° SE 20:02:27 10° E
STARLINK-1204 4.3 19:57:30 10° SSW 20:01:13 33° SE 20:04:57 10° E
Cosmos 2151 Rocket 4.2 19:57:06 10° N 20:01:29 46° ENE 20:05:30 12° SSE
STARLINK-1128 4.0 19:57:22 10° W 20:01:30 66° N 20:05:38 10° ENE
STARLINK-1088 3.9 19:57:59 10° WNW 20:02:03 57° SSW 20:05:46 12° SE
STARLINK-1122 3.8 20:00:13 10° WNW 20:04:23 76° NNE 20:08:32 10° E
ERS-1 Rocket 3.1 20:00:29 10° SSE 20:05:25 67° ENE 20:10:26 10° N
Cosmos 1833 Rocket 2.7 20:00:19 10° NNW 20:05:58 79° ENE 20:11:09 12° SSE
STARLINK-1238 4.2 20:02:21 10° SSW 20:06:08 35° SE 20:09:56 10° ENE
Okean 1 Rocket 4.5 20:02:20 10° N 20:06:10 26° ENE 20:09:39 11° SE
SeaSat 1 4.1 20:03:25 10° ENE 20:06:18 15° ESE 20:08:33 12° SE
STARLINK-1113 4.1 20:02:21 10° W 20:06:29 65° N 20:10:37 10° E
STARLINK-1115 3.9 20:02:58 10° WNW 20:07:01 54° SSW 20:10:33 13° SE
Cosmos 1975 3.5 20:03:34 10° NNW 20:07:34 54° W 20:11:30 10° S
STARLINK-1126 3.7 20:05:09 10° WNW 20:09:18 78° NNE 20:13:27 10° E
Spot 2 Rocket 3.9 20:05:54 10° S 20:10:54 63° WSW 20:15:56 10° NNW
STARLINK-1201 4.1 20:07:17 10° SSW 20:11:07 38° SE 20:14:58 10° ENE
CZ-2C R/B 4.1 20:06:00 10° N 20:11:14 43° WNW 20:16:30 10° SW
Tsikada Rocket 4.4 20:05:04 10° SSW 20:11:15 67° WNW 20:17:25 10° N
STARLINK-1119 4.1 20:07:20 10° W 20:11:28 65° N 20:15:36 10° E
STARLINK-1076 4.0 20:07:57 10° WNW 20:11:59 50° SSW 20:15:20 14° SE
Cosmos 676 Rocket 4.1 20:07:24 10° NNW 20:12:39 81° WSW 20:17:33 12° SSE
STARLINK-1082 3.7 20:10:11 10° WNW 20:14:21 80° NNE 20:18:31 10° ESE
STARLINK-1206 4.0 20:12:11 10° SW 20:16:04 40° SSE 20:19:58 10° ENE
GENESIS II 4.3 20:12:21 10° NW 20:16:25 72° SW 20:19:36 15° SSE
STARLINK-1114 4.1 20:12:21 10° W 20:16:29 65° N 20:20:37 10° E
STARLINK-1092 4.1 20:12:56 10° WNW 20:16:56 47° SSW 20:20:06 15° SE
Cosmos 389 Rocket 4.4 20:15:29 10° SW 20:18:35 30° WNW 20:21:45 10° N
STARLINK-1100 3.7 20:15:10 10° WNW 20:19:20 83° NNE 20:23:29 10° ESE
SL-4 R/B 1.8 20:16:15 10° NNW 20:19:27 52° NE 20:21:42 16° ESE
Cosmos 2056 Rocket 3.4 20:15:01 10° SSW 20:20:08 89° ESE 20:25:18 10° NNE
STARLINK-1205 3.9 20:17:06 10° SW 20:21:01 43° SSE 20:24:57 10° ENE
STARLINK-1130 (DARKSAT) 4.1 20:17:19 10° W 20:21:27 65° N 20:25:35 10° E
STARLINK-1080 4.2 20:17:58 10° WNW 20:21:56 44° SSW 20:24:55 16° SE
STARLINK-1083 3.6 20:20:08 10° WNW 20:24:18 85° NNE 20:28:28 10° ESE
ISS -3.8 20:22:02 10° WNW 20:25:25 82° SSW 20:28:26 13° ESE
STARLINK-1218 3.9 20:22:00 10° SW 20:25:57 45° SSE 20:29:56 10° ENE
STARLINK-1084 4.1 20:22:19 10° W 20:26:26 65° N 20:30:35 10° E
STARLINK-1090 4.2 20:22:57 10° WNW 20:26:53 42° SSW 20:29:42 17° SSE
STARLINK-1125 3.6 20:25:07 10° WNW 20:29:17 88° NNE 20:33:17 11° ESE
STARLINK-1254 3.8 20:26:56 10° SW 20:30:56 48° SSE 20:34:56 10° ENE
STARLINK-1098 4.0 20:27:19 10° W 20:31:27 65° N 20:35:35 10° E
STARLINK-67 3.0 20:29:52 10° WNW 20:31:46 41° N 20:33:40 10° ENE
STARLINK-1089 4.3 20:27:57 10° WNW 20:31:50 39° SW 20:34:28 18° SSE
CARTOSAT-1 3.6 20:28:14 14° S 20:31:59 78° WSW 20:36:20 10° NNW
SL-8 R/B 3.7 20:27:27 10° WSW 20:32:12 63° S 20:36:59 10° E
Cosmos 2278 Rocket 2.2 20:27:34 10° SSW 20:33:11 67° ESE 20:38:50 10° NE
STARLINK-1109 3.6 20:30:06 10° WNW 20:34:16 89° SSW 20:38:03 12° ESE
STARLINK-1231 3.7 20:31:53 10° SW 20:35:54 51° SSE 20:39:56 10° ENE
STARLINK-1123 4.0 20:32:18 10° W 20:36:26 65° N 20:40:34 10° E
STARLINK-1107 4.4 20:32:57 10° WNW 20:36:47 37° SW 20:39:14 19° SSE
Meteor 1-12 Rocket 4.5 20:32:25 10° NNW 20:38:03 70° W 20:43:14 12° S
STARLINK-1091 3.6 20:35:04 10° WNW 20:39:14 86° SSW 20:42:50 14° ESE
Cosmos 1437 Rocket 3.0 20:37:00 18° SSE 20:39:32 47° E 20:43:12 10° NNE
Lacrosse 5 1.8 20:35:46 10° WNW 20:40:50 80° SW 20:44:50 16° SE
STARLINK-1232 3.7 20:36:50 10° SW 20:40:52 55° SSE 20:44:55 10° ENE
STARLINK-1097 4.0 20:37:17 10° W 20:41:26 66° N 20:45:34 10° E
NOSS 2-3 (E) 3.9 20:37:30 10° SW 20:41:54 81° NW 20:47:18 10° NE
Terra 1.8 20:38:31 17° SSE 20:42:16 87° ENE 20:47:04 10° NNW
STARLINK-1072 3.5 20:40:04 10° WNW 20:44:13 82° SSW 20:47:37 15° ESE
STARLINK-1208 3.6 20:41:45 10° SW 20:45:49 58° SSE 20:49:54 10° ENE
STARLINK-1099 4.0 20:42:15 10° WNW 20:46:24 66° N 20:50:32 10° E
STARLINK-1228 3.1 20:43:10 10° WSW 20:46:31 80° NNW 20:49:53 10° ENE
STARLINK-1096 3.5 20:45:04 10° WNW 20:49:13 79° SSW 20:52:25 16° ESE
STARLINK-1234 2.9 20:47:00 10° WSW 20:50:07 79° NNW 20:53:16 10° ENE
Cosmos 1300 Rocket 4.2 20:46:19 10° NNW 20:50:39 51° W 20:54:26 13° SSW
STARLINK-1271 3.6 20:46:43 10° SW 20:50:48 61° SSE 20:54:54 10° ENE
Cosmos 1452 Rocket 3.5 20:45:55 10° S 20:51:07 64° ESE 20:56:22 10° NNE
STARLINK-1104 4.0 20:47:15 10° WNW 20:51:24 67° N 20:55:32 10° E
STARLINK-1212 2.8 20:48:20 10° WSW 20:51:27 89° NNW 20:54:34 10° ENE
STARLINK-1209 3.0 20:48:44 10° W 20:51:53 76° NNW 20:55:03 10° ENE
STARLINK-1105 2.8 20:48:49 10° WSW 20:51:55 89° NW 20:55:02 10° ENE
STARLINK-1247 2.8 20:49:43 10° WSW 20:52:50 88° NNW 20:55:58 10° ENE
Okean 3 4.2 20:48:53 10° SSW 20:53:06 53° WNW 20:57:20 10° N
STARLINK-1227 2.8 20:50:11 10° WSW 20:53:17 87° NNW 20:56:24 10° ENE
Crew Dragon 0.0 20:51:46 10° W 20:53:54 55° SSW 20:54:13 48° SSE
STARLINK-1226 2.8 20:51:02 10° WSW 20:54:10 87° N 20:57:17 10° ENE
STARLINK-1079 3.5 20:50:02 10° WNW 20:54:10 75° SSW 20:57:11 18° ESE
STARLINK-1215 2.8 20:51:58 10° WSW 20:55:06 86° NNW 20:58:14 10° ENE
STARLINK-1154 3.5 20:51:41 10° SW 20:55:46 65° SSE 20:59:53 10° ENE
STARLINK-1144 3.9 20:52:15 10° WNW 20:56:24 68° N 21:00:32 10° E
STARLINK-1217 2.8 20:53:45 10° WSW 20:56:52 85° NNW 21:00:00 10° ENE
STARLINK-1229 2.8 20:54:40 10° WSW 20:57:47 84° NNW 21:00:55 10° ENE
Cosmos 1420 Rocket 4.0 20:52:39 10° SSW 20:57:52 85° WNW 21:03:06 10° NNE
STARLINK-1270 2.9 20:55:32 10° WSW 20:58:39 83° NNW 21:01:47 10° ENE
STARLINK-1116 3.6 20:55:01 10° WNW 20:59:09 72° SSW 21:01:58 20° ESE
Cosmos 2221 Rocket 4.5 20:55:38 10° SSW 21:00:00 50° WNW 21:04:27 10° N
STARLINK-1189 2.9 20:57:22 10° WSW 21:00:30 82° NNW 21:03:38 10° ENE
STARLINK-1197 3.5 20:56:38 10° WSW 21:00:44 68° SSE 21:04:52 10° ENE
MTI 3.6 20:57:45 10° NNE 21:00:54 72° ESE 21:02:33 25° S
Cosmos 1766 4.0 20:57:11 10° N 21:00:59 42° ENE 21:03:05 23° SE
STARLINK-1188 2.9 20:58:15 10° WSW 21:01:22 81° NNW 21:04:30 10° ENE
STARLINK-1103 3.9 20:57:14 10° WNW 21:01:23 69° N 21:05:32 10° E
NOSS 2-3 (D) 4.2 20:57:30 10° WSW 21:01:54 65° NW 21:07:18 10° NE
STARLINK-1235 3.0 20:58:59 10° W 21:02:04 73° NNW 21:05:10 10° ENE
SL-4 R/B 3.4 21:02:13 10° ENE 21:02:26 10° ENE 21:02:39 10° ENE
STARLINK-1187 3.0 20:59:23 10° WSW 21:02:29 76° NNW 21:05:35 10° ENE
Meteor 1-13 Rocket 4.4 20:57:19 10° SSW 21:02:53 75° WNW 21:08:37 10° N
STARLINK-1191 2.9 21:00:44 10° WSW 21:03:50 80° NNW 21:06:57 10° ENE
USA 215 3.2 20:58:28 12° ESE 21:04:35 86° SSW 21:11:10 10° WNW
STARLINK-1221 2.9 21:01:37 10° WSW 21:04:43 79° NNW 21:07:50 10° ENE
Cosmos 371 Rocket 3.2 21:00:02 11° SSW 21:04:46 81° ESE 21:09:40 10° NNE
Meteor 1-23 Rocket 4.3 21:01:01 17° S 21:05:31 70° E 21:11:11 10° NNE
STARLINK-1222 2.9 21:02:30 10° WSW 21:05:36 78° NNW 21:08:43 10° ENE
STARLINK-1198 3.5 21:01:34 10° WSW 21:05:41 72° SSE 21:09:49 10° ENE
STARLINK-1101 3.9 21:02:13 10° WNW 21:06:22 70° N 21:10:31 10° E
STARLINK-1214 2.9 21:03:25 10° WSW 21:06:32 78° NNW 21:09:38 10° ENE
Cosmos 1461 4.0 21:06:45 23° SE 21:07:36 25° ESE 21:11:07 10° ENE
Cosmos 1674 Rocket 3.5 21:04:49 17° S 21:08:10 86° W 21:12:36 10° N
Abrixas rocket 2.0 21:05:49 10° WSW 21:08:42 51° S 21:09:44 32° ESE
STARLINK-1094 3.6 21:04:59 10° WNW 21:09:06 65° SSW 21:11:33 23° SE
STARLINK-1199 3.5 21:06:34 10° WSW 21:10:42 75° SSE 21:14:51 10° ENE
STARLINK-1102 3.8 21:07:13 10° WNW 21:11:23 72° N 21:15:32 10° E
deb Kosmos-1763 4.0 21:09:03 10° NNW 21:12:40 72° ENE 21:14:21 29° SE
STARLINK-1269 4.4 21:11:51 24° S 21:13:14 30° SE 21:16:53 10° E
STARLINK-1117 3.7 21:09:58 10° WNW 21:14:04 61° SSW 21:16:19 25° SE
STARLINK-1210 3.5 21:11:31 10° WSW 21:15:39 79° SSE 21:19:48 10° ENE
Cosmos 1378 Rocket 3.5 21:12:35 20° S 21:15:39 88° E 21:20:04 10° N
STARLINK-1111 3.8 21:12:12 10° WNW 21:16:21 73° N 21:20:30 10° E
SPOT 5 4.1 21:12:28 13° SSW 21:16:38 39° W 21:21:37 10° NNW
STARLINK-1200 4.3 21:16:39 24° S 21:18:12 32° SE 21:21:55 10° E
Nadezhda 4 Rocket 3.9 21:13:37 17° S 21:18:36 86° E 21:24:46 10° N
STARLINK-1078 3.7 21:14:57 10° WNW 21:19:02 58° SSW 21:21:05 27° SE
STARLINK-1219 3.5 21:16:29 10° WSW 21:20:38 82° SSE 21:24:47 10° ENE
Cosmos 1733 3.5 21:16:59 10° N 21:20:46 53° ENE 21:22:28 29° SE
Cosmos 1741 Rocket 4.3 21:16:10 10° NNW 21:21:17 57° WSW 21:24:31 22° S
STARLINK-1073 3.8 21:17:12 10° WNW 21:21:21 75° NNE 21:25:30 10° E
NOSS 3-1 (A) 4.3 21:16:28 10° WSW 21:22:06 53° NW 21:28:48 10° NE
ATLAS CENTAUR R/B 3.6 21:21:33 10° NW 21:22:47 15° N 21:24:05 10° NE
STARLINK-1192 4.2 21:21:25 24° S 21:23:09 34° SE 21:26:56 10° E
STARLINK-1108 3.8 21:19:56 10° WNW 21:23:59 55° SSW 21:25:52 29° SE
ATLAS 3B R/B 4.2 21:19:32 10° NW 21:25:34 34° NNE 21:31:45 10° E
STARLINK-1211 3.5 21:21:27 10° WSW 21:25:35 85° SSE 21:29:45 10° ENE
Cosmos 1975 Rocket 3.7 21:23:46 26° SE 21:25:46 42° E 21:29:59 10° NNE
STARLINK-1121 3.7 21:22:09 10° WNW 21:26:20 77° NNE 21:30:28 10° E
JB-3 4.4 21:22:28 10° NNE 21:26:42 85° ESE 21:29:08 24° S
STARLINK-1244 4.1 21:26:11 23° SSW 21:28:05 37° SE 21:31:54 10° ENE
NOSS 2-2 (E) 4.1 21:27:52 27° SE 21:28:10 28° ESE 21:31:37 10° ENE
TSX-5 4.5 21:24:06 16° SSW 21:28:39 60° ESE 21:33:08 10° NE
STARLINK-1071 3.8 21:24:55 10° WNW 21:28:57 51° SSW 21:30:39 30° SSE
Cosmos 2297 3.8 21:25:26 20° S 21:29:14 57° ESE 21:34:50 10° NE
CENTAUR R/B 3.8 21:22:24 10° NW 21:29:54 54° NNE 21:38:18 10° ESE
STARLINK-1245 3.5 21:26:26 10° WSW 21:30:35 89° S 21:34:45 10° ENE
STARLINK-1106 3.7 21:27:08 10° WNW 21:31:18 79° NNE 21:35:16 11° ESE
BREEZE-M DEB (TANK) 4.2 21:20:41 10° WNW 21:32:53 48° SW 21:35:38 25° SSE
STARLINK-1138 4.0 21:30:58 23° SSW 21:33:03 39° SE 21:36:56 10° ENE
STARLINK-1110 3.9 21:29:08 10° WNW 21:33:08 49° SSW 21:34:41 32° SSE
STARLINK-1203 4.0 21:32:36 19° SSW 21:35:14 41° SSE 21:39:12 10° ENE
STARLINK-1233 3.6 21:31:24 10° WSW 21:35:33 88° NNW 21:39:43 10° ENE
STARLINK-1112 3.6 21:32:08 10° WNW 21:36:18 82° NNE 21:40:03 13° ESE
ERBS 2.1 21:33:17 10° SW 21:36:35 78° SSE 21:39:55 10° ENE
STARLINK-1143 3.9 21:35:45 22° SSW 21:38:00 41° SSE 21:41:56 10° ENE
Cosmos 1242 Rocket 4.0 21:37:35 22° ESE 21:38:22 24° E 21:41:21 10° NE
STARLINK-1124 4.0 21:34:55 10° WNW 21:38:53 46° SSW 21:40:14 33° SSE
STARLINK-1204 3.6 21:36:24 10° WSW 21:40:33 86° NNW 21:44:43 10° ENE
Cosmos 2082 Rocket 3.2 21:35:45 10° NW 21:40:56 36° WSW 21:44:18 19° SSW
NOSS 8 (E) 4.0 21:40:15 39° SSW 21:41:12 66° SE 21:44:14 10° NE
STARLINK-1128 3.6 21:37:08 10° WNW 21:41:17 84° NNE 21:44:50 14° ESE
STARLINK-1241 3.9 21:40:29 20° SSW 21:42:57 44° SSE 21:46:55 10° ENE
Cosmos 1470 3.6 21:40:01 10° N 21:43:42 39° ENE 21:45:16 27° ESE
STARLINK-1122 4.1 21:39:54 10° WNW 21:43:50 43° SSW 21:45:00 34° S
Okean 1 Rocket 4.1 21:40:01 10° NNW 21:44:12 40° W 21:46:51 20° SSW
SeaSat 1 2.4 21:39:30 10° NNE 21:44:30 85° ESE 21:48:18 17° SSW
STARLINK-1238 3.6 21:41:21 10° WSW 21:45:31 83° NNW 21:49:40 10° ENE
STARLINK-1113 3.6 21:42:06 10° WNW 21:46:16 87° NNE 21:49:36 16° ESE
Cosmos 1110 Rocket 3.9 21:43:28 23° SSW 21:46:45 75° ESE 21:51:56 10° NNE
STARLINK-1239 3.8 21:45:15 19° SW 21:47:54 47° SSE 21:51:54 10° ENE
STARLINK-1126 4.1 21:44:51 10° WNW 21:48:44 40° SSW 21:49:44 34° S
STARLINK-1201 3.7 21:46:22 10° WSW 21:50:30 80° NNW 21:54:40 10° ENE
NOSS 2-2 (C) 3.8 21:50:29 34° SE 21:50:51 35° ESE 21:54:31 10° ENE
STARLINK-1119 3.5 21:47:05 10° WNW 21:51:15 90° SSW 21:54:23 17° ESE
ATLAS 2AS CENTAUR R/B 4.3 21:48:30 18° SE 21:51:26 22° ESE 21:57:04 10° ENE
Cosmos 1805 3.9 21:47:55 10° NNW 21:51:43 48° W 21:53:26 28° SSW
EO 1 Del DPAF 3.1 21:48:11 10° NNE 21:52:00 90° SSE 21:53:37 33° SSW
SL-4 R/B 3.6 21:50:25 10° WNW 21:52:09 14° WSW 21:52:33 14° WSW
Aureole 2 Rocket 2.1 21:51:13 39° SSW 21:52:16 82° WNW 21:55:21 10° NNE
STARLINK-1240 3.7 21:50:02 18° SW 21:52:53 50° SSE 21:56:54 10° ENE
BREEZE-M DEB (TANK) 4.1 21:39:49 10° WNW 21:53:37 64° SSW 21:56:23 23° SE
Cosmos 304 Rocket 3.8 21:50:10 19° SSW 21:53:37 78° WNW 21:58:26 10° NNE
STARLINK-1082 4.2 21:49:54 10° WNW 21:53:45 38° SW 21:54:34 34° S
Cosmos 968 Rocket 4.2 21:49:38 10° NNW 21:54:40 46° ENE 21:58:02 19° SE
STARLINK-1206 3.7 21:51:21 10° W 21:55:30 78° NNW 21:59:39 10° ENE
Okean 2 3.3 21:53:51 32° S 21:55:43 90° E 21:59:53 10° N
NOSS 3-2 (A) 4.0 21:48:45 10° NW 21:56:07 86° NE 22:02:51 17° SE
STARLINK-1114 3.5 21:52:05 10° WNW 21:56:15 87° SSW 21:59:11 19° ESE
Cosmos 1092 Rocket 4.0 21:52:19 21° SSW 21:56:35 80° W 22:02:46 10° N
Cosmos 1455 Rocket 3.0 21:52:51 10° N 21:57:15 90° E 21:59:07 34° S
STARLINK-1216 3.7 21:54:49 17° SW 21:57:50 53° SSE 22:01:53 10° ENE
STARLINK-1100 4.3 21:54:54 10° WNW 21:58:42 35° SW 21:59:21 33° SSW
Cosmos 2369 Rocket 3.0 21:57:14 26° SSE 21:59:25 35° ESE 22:04:29 10° NE
Helios 1A 3.9 21:57:21 23° ESE 21:59:26 39° ENE 22:03:20 10° N
STARLINK-1205 3.7 21:56:20 10° W 22:00:29 76° NNW 22:04:38 10° ENE
STARLINK-1130 (DARKSAT) 3.5 21:57:02 10° WNW 22:01:12 84° SSW 22:03:56 21° ESE
ISS -2.4 21:59:02 10° W 22:01:21 25° SW 22:01:21 25° SW
STARLINK-1237 3.6 21:59:34 15° SW 22:02:49 57° SSE 22:06:53 10° ENE
USA 238 DEB 3.8 21:56:14 10° NW 22:03:26 89° SW 22:08:58 20° SE
Cosmos 1486 Rocket 4.2 21:58:08 10° NNW 22:03:27 67° ENE 22:06:31 25° SE
USA 238 3.8 21:56:19 10° NW 22:03:32 89° SW 22:09:06 19° SE
STARLINK-1083 4.4 21:59:54 10° W 22:03:39 33° SW 22:04:07 32° SSW
STARLINK-67 4.4 22:01:57 10° WNW 22:02:31 16° WNW 22:02:31 16° WNW
Meteor 1-21 4.4 22:01:12 28° SSE 22:04:10 62° E 22:09:44 10° NNE
Cosmos 1378 4.0 22:02:30 23° SW 22:04:27 45° WNW 22:08:03 10° N
STARLINK-1218 3.8 22:01:18 10° W 22:05:27 74° NNW 22:09:36 10° ENE
STARLINK-1084 3.5 22:02:01 10° WNW 22:06:11 80° SSW 22:08:43 23° ESE
Cosmos 1842 3.2 22:05:25 37° S 22:06:55 90° NW 22:10:51 10° N
STARLINK-1202 3.6 22:04:22 14° SW 22:07:47 60° SSE 22:11:53 10° ENE
STARLINK-1125 4.5 22:04:55 10° W 22:08:36 31° SW 22:08:54 31° SSW
OPS 6432 4.3 22:07:02 10° NW 22:10:07 73° SW 22:11:02 45° SSE
Cosmos 1025 Rocket 3.7 22:08:42 30° SE 22:10:08 41° E 22:14:11 10° NNE
Cosmos 1943 Rocket 2.4 22:07:35 29° S 22:10:13 54° ESE 22:15:41 10° NE
STARLINK-1254 3.8 22:06:19 10° W 22:10:27 72° N 22:14:36 10° ENE
Cosmos 1331 Rocket 4.0 22:07:06 22° SSW 22:10:32 80° WNW 22:15:45 10° NNE
STARLINK-1098 3.5 22:07:01 10° WNW 22:11:10 77° SSW 22:13:31 25° ESE
SL-8 R/B 3.7 22:09:48 10° W 22:14:32 57° SSW 22:17:56 18° ESE
Cosmos 1302 Rocket 4.1 22:12:14 30° S 22:14:48 64° ESE 22:20:04 10° NNE
Helios 1B rocket 4.5 22:12:50 10° NE 22:15:21 15° E 22:16:32 14° ESE
STARLINK-1231 3.9 22:11:19 10° W 22:15:28 71° N 22:19:36 10° ENE
STARLINK-1123 3.5 22:12:00 10° WNW 22:16:08 73° SSW 22:18:17 27° SE
Meteor 2-13 Rocket 4.4 22:12:50 25° S 22:16:35 88° WNW 22:22:48 10° N
STARLINK-1246 3.5 22:13:54 12° SW 22:17:42 67° SSE 22:21:50 10° ENE
Cosmos 2278 Rocket 4.0 22:12:48 10° WSW 22:17:45 30° NW 22:22:44 10° NNE
STARLINK-1232 3.9 22:16:18 10° W 22:20:27 70° N 22:24:35 10° ENE
Terra 4.1 22:18:11 10° WSW 22:20:41 14° W 22:23:12 10° NW
STARLINK-1097 3.5 22:16:58 10° WNW 22:21:07 70° SSW 22:23:04 30° SE
ALOS 2 2.6 22:19:22 36° S 22:21:10 79° WSW 22:25:35 10° NNW
ATLAS 5 CENTAUR R/B 2.8 22:23:07 22° E 22:23:07 22° E 22:24:12 10° ENE
STARLINK-1224 3.5 22:18:39 11° WSW 22:22:41 70° SSE 22:26:49 10° ENE
Lacrosse 5 3.3 22:19:28 10° WNW 22:23:12 21° SW 22:24:01 20° SW
STARLINK-1228 3.6 22:19:58 10° WNW 22:23:18 60° N 22:26:37 10° E
Thor Agena Rocket 4.2 22:19:06 10° N 22:24:16 54° WNW 22:28:06 18° SW
S3M 4.0 22:18:15 10° N 22:24:25 78° E 22:27:54 28° SSE
Cosmos 1536 Rocket 3.9 22:23:49 34° SSE 22:25:19 52° E 22:29:33 10° NNE
STARLINK-1208 3.9 22:21:17 10° W 22:25:25 68° N 22:29:34 10° ENE
Cosmos 1655 Rocket 4.2 22:22:34 28° SSE 22:25:56 62° E 22:32:05 10° NNE
STARLINK-1099 3.5 22:21:56 10° WNW 22:26:03 66° SSW 22:27:49 32° SE
STARLINK-1234 3.4 22:23:01 10° WNW 22:26:07 58° N 22:29:12 10° E
Meteor 2-8 Rocket 4.5 22:20:33 10° N 22:26:43 80° ENE 22:30:10 28° SSE
Cosmos 292 Rocket 4.2 22:25:11 33° SSE 22:26:55 48° ESE 22:31:36 10° NNE
Cosmos 546 4.5 22:23:14 10° W 22:27:06 70° SSW 22:29:20 24° ESE
STARLINK-1212 3.5 22:24:21 10° WNW 22:27:26 56° N 22:30:30 10° E
STARLINK-1225 3.5 22:23:32 10° WSW 22:27:40 74° SSE 22:31:49 10° ENE
STARLINK-1105 3.5 22:24:50 10° WNW 22:27:54 56° N 22:30:57 10° E
STARLINK-1209 3.4 22:24:55 10° WNW 22:28:03 59° N 22:31:10 10° E
STARLINK-1247 3.5 22:25:44 10° WNW 22:28:49 57° N 22:31:54 10° E
STARLINK-1227 3.5 22:26:12 10° WNW 22:29:16 56° N 22:32:20 10° E
STARLINK-1226 3.5 22:27:03 10° WNW 22:30:08 57° N 22:33:13 10° E
STARLINK-1271 3.9 22:26:18 10° W 22:30:26 67° N 22:34:35 10° ENE
COSMOS 2455 4.4 22:28:32 17° SE 22:30:28 19° ESE 22:34:35 10° ENE
STARLINK-1104 3.6 22:26:56 10° WNW 22:31:02 63° SSW 22:32:37 35° SE
STARLINK-1215 3.5 22:28:00 10° WNW 22:31:05 57° N 22:34:10 10° E
SL-4 R/B 2.6 22:31:54 22° WNW 22:31:54 22° WNW 22:33:17 10° NW
GEOS 3 Rocket 4.3 22:27:03 10° ESE 22:32:08 54° NE 22:37:19 10° NW
STARLINK-1230 3.5 22:28:29 10° WSW 22:32:38 77° SSE 22:36:47 10° ENE
STARLINK-1217 3.5 22:29:46 10° WNW 22:32:51 57° N 22:35:56 10° E
Cosmos 1544 Rocket 3.9 22:28:44 10° NNW 22:32:59 55° W 22:34:36 34° SSW
BREEZE-M DEB (TANK) 2.8 22:23:26 10° WSW 22:32:59 68° S 22:36:02 10° E
STARLINK-1229 3.5 22:30:41 10° WNW 22:33:46 57° N 22:36:52 10° E
STARLINK-1270 3.5 22:31:33 10° WNW 22:34:38 57° N 22:37:44 10° E
Cosmos 1726 2.5 22:31:36 10° N 22:35:16 56° ENE 22:36:25 38° SE
STARLINK-1154 4.0 22:31:17 10° W 22:35:25 67° N 22:39:34 10° ENE
STARLINK-1144 3.6 22:31:55 10° WNW 22:36:01 59° SSW 22:37:24 37° SE
Cosmos 2228 4.4 22:32:38 10° N 22:36:27 31° ENE 22:38:43 19° ESE
STARLINK-1189 3.5 22:33:23 10° WNW 22:36:29 57° N 22:39:34 10° E
STARLINK-1188 3.5 22:34:16 10° WNW 22:37:22 57° N 22:40:28 10° E
STARLINK-1243 3.5 22:33:27 10° WSW 22:37:36 81° SSE 22:41:46 10° ENE
STARLINK-1235 3.4 22:35:00 10° WNW 22:38:04 60° N 22:41:08 10° E
STARLINK-1187 3.4 22:35:25 10° WNW 22:38:29 58° N 22:41:33 10° E
SL-27 R/B 2.8 22:35:24 10° NNW 22:38:57 54° WSW 22:39:37 45° SSW
STARLINK-1191 3.4 22:36:46 10° WNW 22:39:50 58° N 22:42:54 10° E
STARLINK-1197 4.0 22:36:17 10° W 22:40:25 66° N 22:44:33 10° E
STARLINK-1221 3.4 22:37:38 10° WNW 22:40:42 58° N 22:43:47 10° E
STARLINK-1103 3.6 22:36:55 10° WNW 22:40:58 56° SSW 22:42:11 39° SSE
STARLINK-1222 3.4 22:38:31 10° WNW 22:41:36 58° N 22:44:41 10° E
Cosmos 1553 Rocket 4.2 22:35:49 10° NNW 22:42:05 63° W 22:45:31 27° SSW
Cosmos 1953 2.3 22:38:23 10° N 22:42:25 79° ENE 22:43:45 41° SSE
STARLINK-1214 3.4 22:39:27 10° WNW 22:42:31 58° N 22:45:36 10° E
STARLINK-1236 3.5 22:38:26 10° WSW 22:42:35 84° SSE 22:46:45 10° ENE
Cosmos 1340 Rocket 3.1 22:40:02 10° N 22:44:01 63° ENE 22:45:32 35° SE
Cosmos 1833 4.2 22:38:41 10° NNW 22:44:22 82° ENE 22:47:49 25° SE
STARLINK-1198 4.0 22:41:15 10° W 22:45:22 65° N 22:49:31 10° E
STARLINK-1101 3.7 22:41:53 10° WNW 22:45:56 53° SSW 22:46:57 41° SSE
Cosmos 1461 3.6 22:43:04 15° WSW 22:46:23 55° NW 22:50:45 10° NE
Cosmos 1992 Rocket 4.4 22:45:08 31° SSE 22:47:13 50° ESE 22:52:15 10° NNE
Cosmos 1271 Rocket 2.7 22:46:32 42° SSW 22:47:44 80° WNW 22:51:40 10° N
USA 215 4.0 22:45:48 26° SSW 22:48:09 33° SW 22:53:59 10° WNW
Aureole 3 Rocket 4.4 22:45:29 10° NNW 22:50:23 49° W 22:54:05 25° SSW
STARLINK-1199 4.0 22:46:16 10° W 22:50:24 65° N 22:54:33 10° E
Cosmos 1758 3.9 22:46:56 10° NNW 22:50:48 45° W 22:52:04 34° SW
STARLINK-1102 3.8 22:46:54 10° WNW 22:50:55 50° SSW 22:51:45 42° S
COSMOS 2487 3.4 22:49:02 10° N 22:52:22 41° ENE 22:53:49 26° ESE
STARLINK-1269 3.5 22:48:22 10° WSW 22:52:31 89° NNW 22:56:42 10° ENE
Cosmos 1656 Rocket 4.1 22:52:30 30° SSE 22:54:53 46° ESE 23:00:13 10° NE
Cosmos 1707 2.8 22:53:56 40° SSW 22:55:13 73° WNW 22:59:08 10° N
STARLINK-1210 4.0 22:51:15 10° W 22:55:23 65° N 22:59:31 10° E
STARLINK-1111 3.8 22:51:52 10° WNW 22:55:52 47° SSW 22:56:31 42° S
In-Cosmos 22 4.2 22:54:02 31° SSE 22:56:31 63° E 23:01:45 10° NNE
STARLINK-1200 3.6 22:53:22 10° WSW 22:57:32 87° NNW 23:01:42 10° ENE
NOSS 2-2 (D) 3.6 22:57:13 23° WSW 22:59:23 62° NW 23:03:37 10° NE
Cosmos 1606 Rocket 4.0 22:55:26 10° N 22:59:40 52° ENE 23:01:42 28° SE
STARLINK-1219 4.0 22:56:14 10° W 23:00:22 65° N 23:04:31 10° E
YAOGAN 11 4.1 22:58:51 37° S 23:00:30 70° WSW 23:04:52 10° NNW
Meteor 1-16 Rocket 4.1 22:54:52 10° NNW 23:00:33 89° W 23:03:23 30° S
STARLINK-1073 3.9 22:56:53 10° WNW 23:00:50 44° SSW 23:01:19 42° SSW
NOSS 3-2 (C) 4.0 22:53:36 10° NW 23:00:59 69° SW 23:07:07 20° SSE
Cosmos 1626 4.3 22:59:58 13° ESE 23:01:23 16° E 23:03:43 10° NE
STARLINK-1192 3.6 22:58:21 10° WSW 23:02:31 84° NNW 23:06:41 10° ENE
Cosmos 2297 Rocket 4.4 22:58:56 10° NNW 23:03:28 24° NE 23:07:58 10° E
Cosmos 2292 Rocket 3.4 23:02:09 38° S 23:03:46 79° E 23:07:25 10° NNE
CZ-4 R/B 4.3 22:59:27 10° NNE 23:04:12 51° E 23:06:12 31° SSE
STARLINK-1211 4.0 23:01:13 10° W 23:05:21 65° N 23:09:29 10° E
STARLINK-1121 4.0 23:01:51 10° WNW 23:05:46 41° SSW 23:06:04 40° SSW
APEX 4.4 23:02:48 28° SSW 23:06:25 70° ESE 23:11:59 10° NE
STARLINK-1244 3.6 23:03:19 10° WSW 23:07:28 81° NNW 23:11:39 10° ENE
STARLINK-1245 4.0 23:06:13 10° W 23:10:21 65° N 23:14:30 10° E
STARLINK-1106 4.1 23:06:51 10° WNW 23:10:43 39° SW 23:10:51 38° SSW
Meteor 2-10 4.2 23:06:46 10° NNW 23:11:44 54° W 23:13:53 31° SSW
STARLINK-1138 3.7 23:08:19 10° WSW 23:12:28 79° NNW 23:16:38 10° ENE
NOSS 3-4 (A) 3.8 23:10:06 29° S 23:12:45 46° ESE 23:18:46 10° NE
NOSS 3-4 (C) 3.9 23:10:13 29° S 23:12:52 46° ESE 23:18:52 10° NE
Cosmos 1242 Rocket 4.0 23:11:36 22° WSW 23:13:07 30° WNW 23:16:26 10° N
ERBS 4.1 23:10:05 10° W 23:13:08 33° NNW 23:16:13 10° NE
Aureole 3 2.9 23:09:19 10° NNW 23:13:11 73° W 23:13:55 51° SSW
SL-4 R/B 3.7 23:13:39 23° SE 23:13:40 23° SE 23:17:24 10° E
PSLV R/B 4.0 23:09:41 10° NNE 23:14:15 55° E 23:16:05 32° SSE
STARLINK-1203 3.7 23:10:41 10° W 23:14:53 78° NNW 23:19:07 10° ENE
STARLINK-1233 4.0 23:11:12 10° W 23:15:20 65° N 23:19:29 10° E
STARLINK-1112 4.2 23:11:52 10° WNW 23:15:39 36° SW 23:15:39 36° SW
ATLAS 3B R/B 2.8 23:10:25 10° NW 23:17:12 80° NE 23:24:13 10° SE
STARLINK-1143 3.7 23:13:18 10° W 23:17:27 77° NNW 23:21:37 10° ENE
SL-16 R/B 3.9 23:12:27 10° ESE 23:17:54 35° ENE 23:23:23 10° N
Cosmos 2266 Rocket 4.0 23:16:09 28° SSW 23:19:36 78° W 23:25:42 10° N
Cosmos 1674 2.8 23:18:32 41° SSE 23:19:38 63° E 23:23:22 10° NNE
STARLINK-1204 4.0 23:16:12 10° W 23:20:21 66° N 23:24:29 10° E
STARLINK-1128 4.3 23:16:53 10° W 23:20:26 34° SW 23:20:26 34° SW
CENTAUR R/B 3.2 23:13:11 10° NW 23:21:02 64° SW 23:27:41 19° SSE
ATLAS CENTAUR R/B 2.7 23:20:47 24° SE 23:21:38 26° ESE 23:25:08 10° ENE
STARLINK-1241 3.8 23:18:17 10° W 23:22:26 75° NNW 23:26:36 10° ENE
Cosmos 1503 Rocket 4.3 23:17:25 10° NNW 23:22:34 53° WSW 23:24:51 31° SSW
STARLINK-1238 4.0 23:21:10 10° WNW 23:25:19 66° N 23:29:27 10° E
STARLINK-1113 4.5 23:21:53 10° W 23:25:12 31° SW 23:25:12 31° SW
STARLINK-1239 3.8 23:23:16 10° W 23:27:25 73° NNW 23:31:35 10° ENE
STARLINK-1201 4.0 23:26:11 10° WNW 23:30:19 67° N 23:34:28 10° E
BREEZE-M DEB 4.4 23:27:06 10° W 23:31:22 81° S 23:49:23 10° E
STARLINK-1240 3.8 23:28:16 10° W 23:32:25 71° N 23:36:34 10° ENE
BREEZE-M DEB (TANK) 3.4 23:29:08 10° W 23:32:29 46° SSW 23:38:07 10° SE
Cosmos 1867 3.5 23:27:11 10° NW 23:32:39 70° SW 23:36:08 23° SSE
Helios 1A 4.4 23:33:57 22° WSW 23:35:07 25° W 23:38:36 10° NW
STARLINK-1206 3.9 23:31:10 10° WNW 23:35:19 68° N 23:39:27 10° E
STARLINK-1216 3.9 23:33:15 10° W 23:37:24 70° N 23:41:33 10° ENE
Cosmos 1354 Rocket 4.5 23:32:23 10° NW 23:37:25 45° WSW 23:39:37 29° SSW
Cosmos 1908 3.3 23:35:07 10° NNW 23:38:53 59° W 23:40:02 39° SSW
Cosmos 2227 Rocket 3.9 23:34:19 10° NNW 23:39:25 32° NE 23:44:29 10° ESE
Cosmos 1892 Rocket 3.8 23:37:41 30° SSE 23:39:40 61° E 23:44:01 10° NNE
STARLINK-1205 3.9 23:36:09 10° WNW 23:40:18 69° N 23:44:27 10° E
ATLAS 2AS CENTAUR R/B 3.1 23:35:54 23° SSW 23:41:21 75° SE 23:49:15 10° NE
STARLINK-1237 3.9 23:38:15 10° W 23:42:24 69° N 23:46:33 10° ENE
Meteor 1-24 Rocket 4.0 23:39:53 24° SSE 23:42:51 53° E 23:48:06 10° NNE
Cosmos 2369 Rocket 2.9 23:38:58 16° WSW 23:43:18 50° NW 23:48:48 10° NNE
RESURS DK-1 3.9 23:43:24 21° SE 23:44:50 25° ESE 23:48:16 10° NE
STARLINK-1218 3.9 23:41:07 10° WNW 23:45:17 71° N 23:49:25 10° E
CZ-2D R/B 3.7 23:40:54 10° NE 23:45:17 26° E 23:48:55 13° SE
Cosmos 1809 Rocket 4.5 23:42:06 26° S 23:45:46 81° E 23:51:59 10° NNE
STARLINK-1202 3.9 23:43:16 10° W 23:47:24 68° N 23:51:33 10° ENE
Cosmos 1726 Rocket 3.5 23:43:33 10° NNW 23:47:52 67° W 23:49:41 33° S
Cosmos 2315 Rocket 4.3 23:42:43 10° NNW 23:48:45 54° W 23:52:12 25° SSW
STARLINK-1254 3.8 23:46:07 10° WNW 23:50:16 72° N 23:54:25 10° E
Helios 1B rocket 2.6 23:46:56 10° N 23:51:02 64° WNW 23:52:51 31° SW
Cosmos 1943 Rocket 3.5 23:49:14 10° WSW 23:54:15 34° NW 23:59:21 10° NNE
STARLINK-1231 3.8 23:51:07 10° WNW 23:55:17 74° NNE 23:59:26 10° E
